SCP
0 0 0 0 0 0 0 0 0 0 0 0 0 0 0 0 0 0 0 0 0 0 0 0 0 0 0 0 0 0 0 0 0 0 0 0 0 0
0 0 0 0 0 0 0 0 0 0 0 0 0 0 0 0 0 0 0 0 0 0 0 0 0 0 0 0 0 0 0 0 0 0 0 0 0 0
0 0 0 0 0 0 0 0 0 0 0 0 0 0 0 0 0 0 0 0 0 0 0 0 0 0 0 0 0 0 0 0 0 0 0 0 0 0
0 0 0 0 0 0 0 0 0 0 0 0 0 0 0 0 0 0 0 0 0 0 0 0 0 0 0 0 0 0 0 0 0 0 0 0 0 0
0 0 0 0 0 0 0 0 0 0 0 0 0 0 0 0 0 0 0 0 0 0 0 0 0 0 0 0 0 0 0 0 0 0 0 0 0 0
0 0 0 0 0 0 0 0 0 0 0 0 0 0 0 0 0 0 0 0 0 0 0 0 0 0 0 0 0 0 0 0 0 0 0 0 0 0
0 0 0 0 0 0 0 0 0 0 0 0 0 0 0 0 0 0 0 0 0 0 0 0 0 0 0 0 0 0 0 0 0 0 0 0 0 0
0 0 0 0 0 0 0 0 0 0 0 0 0 0 0 0 0 0 0 0 0 0 0 0 0 0 0 0 0 0 0 0 0 0 0 0 0 0
0 0 0 0 0 0 0 0 0 0 0 0 0 0 0 0 0 0 0 0 0 0 0 0 0 0 0 0 0 0 0 0 0 0 0 0 0 0
0 0 0 0 0 0 0 0 0 0 0 0 0 0 0 0 0 0 0 0 0 0 0 0 0 0 0 0 0 0 0 0 0 0 0 0 0 0
0 0 0 0 0 0 0 0 0 0 0 0 0 0 0 0 0 0 0 0 0 0 0 0 0 0 0 0 0 0 0 0 0 0 0 0 0 0
0 0 0 0 0 0 0 0 0 0 0 0 0 0 0 0 0 0 0 0 0 0 0 0 0 0 0 0 0 0 0 0 0 0 0 0 0 0
0 0 0 0 0 0 0 0 0 0 0 0 0 0 0 0 0 0 0 0 0 0 0 0 0 0 0 0 0 0 0 0 0 0 0 0 0 0
0 0 0 0 0 0 0 0 0 0 0 0 0 0 0 0 0 0 0 0 0 0 0 0 0 0 0 0 0 0 0 0 0 0 0 0 0 0
0 0 0 0 0 0 0 0 0 0 0 0 0 0 0 0 0 0 0 0 0 0 0 0 0 0 0 0 0 0 0 0 0 0 0 0 0 0
0 0 0 0 0 0 0 0 0 0 0 0 0 0 0 0 0 0 0 0 0 0 0 0 0 0 0 0 0 0 0 0 0 0 0 0 0 0
0 0 0 0 0 0 0 0 0 0 0 0 0 0 0 0 0 0 0 0 0 0 0 0 0 0 0 0 0 0 0 0 0 0 0 0 0 0
0 0 0 0 0 0 0 0 0 0 0 0 0 0 0 0 0 0 0 0 0 0 0 0 0 0 0 0 0 0 0 0 0 0 0 0 0 0
0 0 0 0 0 0 0 0 0 0 0 0 0 0 0 0 0 0 0 0 0 0 0 0 0 0 0 0 0 0 0 0 0 0 0 0 0 0
0 0 0 0 0 0 0 0 0 0 0 0 0 0 0 0 0 0 0 0 0 0 0 0 0 0 0 0 0 0 0 0 0 0 0 0 0 0
0 0 0 0 0 0 0 0 0 0 0 0 0 0 0 0 0 0 0 0 0 0 0 0 0 0 0 0 0 0 0 0 0 0 0 0 0 0
0 0 0 0 0 0 0 0 0 0 0 0 0 0 0 0 0 0 0 0 0 0 0 0 0 0 0 0 0 0 0 0 0 0 0 0 0 0
0 0 0 0 0 0 0 0 0 0 0 0 0 0 0 0 0 0 0 0 0 0 0 0 0 0 0 0 0 0 0 0 0 0 0 0 0 0
Wind_Speed_500mb
32 33 34 33 32 34 35 35 36 37 66 53 44 49 44 37 27 25 26 24 19 18 18 21 22 38 27 21 13 16 19 24 29 18 17 10 12 14
36 38 39 38 39 38 37 38 42 44 45 58 70 61 46 37 33 33 27 28 25 20 17 22 33 40 31 22 13 17 20 22 22 19 14 9 11 13
42 44 45 45 46 44 43 43 48 50 65 77 69 62 40 43 32 29 29 29 30 25 18 24 30 45 27 26 17 20 19 16 18 15 14 9 11 13
48 50 51 52 52 51 52 55 57 57 60 72 68 66 47 42 36 32 27 30 31 28 21 19 24 43 43 30 23 23 23 18 15 12 16 9 11 11
57 58 59 59 59 55 54 57 58 59 55 59 66 61 51 48 38 32 28 26 29 27 23 16 21 37 42 33 27 22 22 19 16 13 14 11 11 12
65 66 63 60 60 57 58 59 57 56 51 53 58 61 58 48 46 37 28 22 27 22 20 20 21 21 44 38 27 20 25 21 16 15 13 12 12 14
70 67 60 60 60 60 62 62 57 56 50 54 54 58 55 48 41 36 27 18 21 20 19 20 19 23 41 36 33 27 26 23 18 15 12 14 12 13
72 65 61 63 66 67 64 60 54 56 56 57 63 66 67 65 53 43 30 26 14 22 16 19 24 25 40 44 40 29 27 24 19 15 14 16 13 15
69 68 71 72 71 70 69 66 62 59 57 59 62 55 55 58 48 39 32 33 32 23 18 23 29 45 37 40 43 31 27 25 28 14 18 17 15 14
71 71 75 77 68 65 62 58 54 55 57 61 65 63 55 47 49 55 51 44 42 39 34 30 30 41 43 43 42 34 27 26 24 20 21 18 17 15
74 72 77 74 62 56 55 57 55 59 53 47 53 56 53 46 41 46 49 50 52 43 43 38 38 43 46 47 44 35 32 28 31 23 23 21 19 19
78 80 69 62 60 56 58 54 59 60 55 52 52 47 46 49 48 50 56 60 58 51 52 44 48 44 37 47 45 41 34 32 33 28 25 27 23 22
82 77 65 61 59 60 55 56 59 57 58 60 61 59 57 55 55 56 56 61 62 65 49 53 53 54 42 34 50 48 43 38 31 33 29 32 27 25
74 71 69 63 64 58 60 62 62 59 63 66 68 69 66 64 58 55 60 63 66 68 63 55 58 59 60 42 37 49 50 45 35 33 35 37 35 32
66 71 69 68 65 64 63 68 69 71 71 72 75 77 72 70 65 66 62 56 60 67 67 70 72 58 57 56 50 41 53 52 47 41 43 41 39 35
63 66 70 70 69 73 74 74 78 80 80 81 82 80 74 69 72 70 70 71 62 63 66 68 66 63 64 52 50 47 42 43 47 51 42 42 43 38
64 70 72 72 74 75 82 86 82 76 72 69 67 66 66 66 69 71 66 72 77 71 73 73 73 66 62 53 56 55 49 50 50 46 51 49 47 42
64 69 71 74 79 83 87 89 80 77 77 74 71 65 62 61 63 63 67 80 87 81 79 79 78 76 69 65 64 55 54 50 53 48 53 54 52 49
60 63 70 74 80 85 84 79 77 74 73 75 76 73 67 64 61 63 68 80 84 85 83 77 87 93 80 64 70 59 52 49 51 54 52 62 57 56
60 66 72 81 86 84 82 77 77 73 68 62 62 69 69 68 66 67 68 78 84 84 83 84 94 99 99 87 80 63 55 50 48 56 60 64 56 55
66 69 71 76 81 80 74 71 67 62 53 50 50 52 67 68 73 68 67 77 75 87 86 90 98 92 92 84 77 66 59 51 46 52 59 63 65 66
65 68 74 76 76 75 73 66 56 47 47 47 50 52 58 72 70 70 68 72 77 87 86 86 93 96 96 87 78 78 61 57 53 48 50 53 62 67
62 67 69 72 73 70 63 50 43 46 40 43 48 55 56 73 68 66 64 73 63 88 86 84 96 100 97 87 78 73 65 67 66 58 52 50 54 47
Wind_Direction_500mb
333 334 331 329 321 313 314 320 325 319 320 315 320 320 323 321 306 282 275 277 281 273 249 231 239 243 250 263 247 213 209 215 237 275 279 289 309 327
327 327 326 324 318 311 306 308 308 308 295 304 305 313 317 314 311 296 273 271 275 277 263 221 255 241 248 249 239 214 219 216 251 273 265 278 299 317
321 321 321 319 317 311 306 303 302 300 297 303 309 312 312 309 306 297 283 268 265 272 262 234 242 243 249 235 228 220 213 230 252 266 265 272 287 315
316 316 317 316 314 312 310 305 300 297 293 294 304 308 310 306 304 297 293 263 262 269 256 239 238 234 236 223 220 224 220 233 249 272 269 257 271 304
314 313 315 314 312 312 308 304 302 298 291 287 295 300 301 309 302 291 294 277 256 258 244 242 237 235 240 225 221 229 213 230 243 259 253 250 265 288
311 310 312 310 309 310 305 303 304 299 291 286 288 291 293 300 302 300 290 287 248 256 246 225 241 243 231 220 214 231 205 225 235 251 246 240 254 277
306 307 307 307 307 305 302 302 300 294 286 277 277 285 287 288 293 299 282 300 261 243 252 234 236 228 218 219 223 226 224 214 225 238 233 232 246 268
304 305 308 305 303 301 302 299 291 287 287 283 279 274 272 279 282 279 280 267 289 240 249 255 230 235 222 232 232 238 227 232 233 235 217 229 236 258
303 307 307 304 305 308 304 297 288 279 274 275 276 280 283 271 267 264 261 264 242 242 226 247 247 224 224 233 231 233 230 238 225 222 222 221 235 244
303 305 303 304 309 305 301 298 296 289 278 267 267 271 273 282 259 256 260 262 258 236 236 250 255 226 225 229 227 232 237 236 222 205 219 214 228 230
301 301 304 305 307 302 300 300 302 303 304 294 273 267 267 261 260 251 246 244 247 243 232 235 239 230 224 223 227 229 234 227 231 201 218 215 218 225
302 301 302 302 302 301 299 296 294 300 294 292 289 279 265 251 243 242 239 242 242 244 235 227 230 229 210 219 223 227 227 234 230 213 212 218 211 214
299 302 302 304 303 298 298 295 298 302 295 290 285 276 271 259 238 235 235 232 237 238 233 225 226 222 214 204 212 220 227 234 230 222 215 216 206 204
299 300 303 306 305 305 305 303 301 296 288 284 280 276 271 266 259 244 234 231 234 239 236 224 230 228 220 211 208 220 221 224 224 220 209 216 202 202
298 299 301 304 307 308 307 305 303 298 292 284 279 278 275 271 262 255 250 245 240 238 237 229 226 225 228 231 227 228 217 219 220 214 207 211 206 204
301 303 306 309 310 309 305 302 296 290 286 285 283 283 278 267 259 252 244 245 237 231 229 221 221 226 228 232 235 235 234 219 222 215 207 209 205 202
306 303 307 309 308 307 309 311 307 301 294 290 285 280 273 266 258 250 236 230 230 227 223 220 218 221 228 229 229 230 233 230 228 218 208 207 205 198
299 304 307 310 314 315 314 312 308 300 295 293 287 280 272 263 254 242 231 220 221 219 224 220 210 212 221 222 229 234 223 228 228 221 214 209 205 193
304 312 316 318 314 312 311 303 297 292 287 282 280 275 270 264 253 239 228 218 215 215 217 215 207 204 204 208 218 221 222 223 217 216 214 210 205 196
319 319 315 314 312 313 312 305 300 296 288 279 271 266 262 257 249 238 225 215 211 210 205 204 205 206 204 206 208 213 213 215 219 215 209 207 201 203
322 320 318 317 317 315 309 306 302 297 288 276 265 255 253 249 244 238 226 214 208 206 199 197 209 215 205 209 209 202 204 210 217 218 214 207 202 198
324 322 320 319 319 316 312 308 306 300 294 281 264 263 254 243 239 234 224 214 213 201 199 199 205 195 200 203 206 209 205 201 200 206 220 224 209 201
328 326 325 324 321 317 311 308 303 301 299 289 272 262 246 232 232 229 222 210 212 197 197 195 195 195 200 202 207 206 204 200 198 193 201 208 213 216
Wind_Speed_850mb
32 33 34 33 32 34 35 35 36 37 66 53 44 49 44 37 27 25 26 24 19 18 18 21 22 38 27 21 13 16 19 24 29 18 17 10 12 14
36 38 39 38 39 38 37 38 42 44 45 58 70 61 46 37 33 33 27 28 25 20 17 22 33 40 31 22 13 17 20 22 22 19 14 9 11 13
42 44 45 45 46 44 43 43 48 50 65 77 69 62 40 43 32 29 29 29 30 25 18 24 30 45 27 26 17 20 19 16 18 15 14 9 11 13
48 50 51 52 52 51 52 55 57 57 60 72 68 66 47 42 36 32 27 30 31 28 21 19 24 43 43 30 23 23 23 18 15 12 16 9 11 11
57 58 59 59 59 55 54 57 58 59 55 59 66 61 51 48 38 32 28 26 29 27 23 16 21 37 42 33 27 22 22 19 16 13 14 11 11 12
65 66 63 60 60 57 58 59 57 56 51 53 58 61 58 48 46 37 28 22 27 22 20 20 21 21 44 38 27 20 25 21 16 15 13 12 12 14
70 67 60 60 60 60 62 62 57 56 50 54 54 58 55 48 41 36 27 18 21 20 19 20 19 23 41 36 33 27 26 23 18 15 12 14 12 13
72 65 61 63 66 67 64 60 54 56 56 57 63 66 67 65 53 43 30 26 14 22 16 19 24 25 40 44 40 29 27 24 19 15 14 16 13 15
69 68 71 72 71 70 69 66 62 59 57 59 62 55 55 58 48 39 32 33 32 23 18 23 29 45 37 40 43 31 27 25 28 14 18 17 15 14
71 71 75 77 68 65 62 58 54 55 57 61 65 63 55 47 49 55 51 44 42 39 34 30 30 41 43 43 42 34 27 26 24 20 21 18 17 15
74 72 77 74 62 56 55 57 55 59 53 47 53 56 53 46 41 46 49 50 52 43 43 38 38 43 46 47 44 35 32 28 31 23 23 21 19 19
78 80 69 62 60 56 58 54 59 60 55 52 52 47 46 49 48 50 56 60 58 51 52 44 48 44 37 47 45 41 34 32 33 28 25 27 23 22
82 77 65 61 59 60 55 56 59 57 58 60 61 59 57 55 55 56 56 61 62 65 49 53 53 54 42 34 50 48 43 38 31 33 29 32 27 25
74 71 69 63 64 58 60 62 62 59 63 66 68 69 66 64 58 55 60 63 66 68 63 55 58 59 60 42 37 49 50 45 35 33 35 37 35 32
66 71 69 68 65 64 63 68 69 71 71 72 75 77 72 70 65 66 62 56 60 67 67 70 72 58 57 56 50 41 53 52 47 41 43 41 39 35
63 66 70 70 69 73 74 74 78 80 80 81 82 80 74 69 72 70 70 71 62 63 66 68 66 63 64 52 50 47 42 43 47 51 42 42 43 38
64 70 72 72 74 75 82 86 82 76 72 69 67 66 66 66 69 71 66 72 77 71 73 73 73 66 62 53 56 55 49 50 50 46 51 49 47 42
64 69 71 74 79 83 87 89 80 77 77 74 71 65 62 61 63 63 67 80 87 81 79 79 78 76 69 65 64 55 54 50 53 48 53 54 52 49
60 63 70 74 80 85 84 79 77 74 73 75 76 73 67 64 61 63 68 80 84 85 83 77 87 93 80 64 70 59 52 49 51 54 52 62 57 56
60 66 72 81 86 84 82 77 77 73 68 62 62 69 69 68 66 67 68 78 84 84 83 84 94 99 99 87 80 63 55 50 48 56 60 64 56 55
66 69 71 76 81 80 74 71 67 62 53 50 50 52 67 68 73 68 67 77 75 87 86 90 98 92 92 84 77 66 59 51 46 52 59 63 65 66
65 68 74 76 76 75 73 66 56 47 47 47 50 52 58 72 70 70 68 72 77 87 86 86 93 96 96 87 78 78 61 57 53 48 50 53 62 67
62 67 69 72 73 70 63 50 43 46 40 43 48 55 56 73 68 66 64 73 63 88 86 84 96 100 97 87 78 73 65 67 66 58 52 50 54 47
Wind_Direction_850mb
333 334 331 329 321 313 314 320 325 319 320 315 320 320 323 321 306 282 275 277 281 273 249 231 239 243 250 263 247 213 209 215 237 275 279 289 309 327
327 327 326 324 318 311 306 308 308 308 295 304 305 313 317 314 311 296 273 271 275 277 263 221 255 241 248 249 239 214 219 216 251 273 265 278 299 317
321 321 321 319 317 311 306 303 302 300 297 303 309 312 312 309 306 297 283 268 265 272 262 234 242 243 249 235 228 220 213 230 252 266 265 272 287 315
316 316 317 316 314 312 310 305 300 297 293 294 304 308 310 306 304 297 293 263 262 269 256 239 238 234 236 223 220 224 220 233 249 272 269 257 271 304
314 313 315 314 312 312 308 304 302 298 291 287 295 300 301 309 302 291 294 277 256 258 244 242 237 235 240 225 221 229 213 230 243 259 253 250 265 288
311 310 312 310 309 310 305 303 304 299 291 286 288 291 293 300 302 300 290 287 248 256 246 225 241 243 231 220 214 231 205 225 235 251 246 240 254 277
306 307 307 307 307 305 302 302 300 294 286 277 277 285 287 288 293 299 282 300 261 243 252 234 236 228 218 219 223 226 224 214 225 238 233 232 246 268
304 305 308 305 303 301 302 299 291 287 287 283 279 274 272 279 282 279 280 267 289 240 249 255 230 235 222 232 232 238 227 232 233 235 217 229 236 258
303 307 307 304 305 308 304 297 288 279 274 275 276 280 283 271 267 264 261 264 242 242 226 247 247 224 224 233 231 233 230 238 225 222 222 221 235 244
303 305 303 304 309 305 301 298 296 289 278 267 267 271 273 282 259 256 260 262 258 236 236 250 255 226 225 229 227 232 237 236 222 205 219 214 228 230
301 301 304 305 307 302 300 300 302 303 304 294 273 267 267 261 260 251 246 244 247 243 232 235 239 230 224 223 227 229 234 227 231 201 218 215 218 225
302 301 302 302 302 301 299 296 294 300 294 292 289 279 265 251 243 242 239 242 242 244 235 227 230 229 210 219 223 227 227 234 230 213 212 218 211 214
299 302 302 304 303 298 298 295 298 302 295 290 285 276 271 259 238 235 235 232 237 238 233 225 226 222 214 204 212 220 227 234 230 222 215 216 206 204
299 300 303 306 305 305 305 303 301 296 288 284 280 276 271 266 259 244 234 231 234 239 236 224 230 228 220 211 208 220 221 224 224 220 209 216 202 202
298 299 301 304 307 308 307 305 303 298 292 284 279 278 275 271 262 255 250 245 240 238 237 229 226 225 228 231 227 228 217 219 220 214 207 211 206 204
301 303 306 309 310 309 305 302 296 290 286 285 283 283 278 267 259 252 244 245 237 231 229 221 221 226 228 232 235 235 234 219 222 215 207 209 205 202
306 303 307 309 308 307 309 311 307 301 294 290 285 280 273 266 258 250 236 230 230 227 223 220 218 221 228 229 229 230 233 230 228 218 208 207 205 198
299 304 307 310 314 315 314 312 308 300 295 293 287 280 272 263 254 242 231 220 221 219 224 220 210 212 221 222 229 234 223 228 228 221 214 209 205 193
304 312 316 318 314 312 311 303 297 292 287 282 280 275 270 264 253 239 228 218 215 215 217 215 207 204 204 208 218 221 222 223 217 216 214 210 205 196
319 319 315 314 312 313 312 305 300 296 288 279 271 266 262 257 249 238 225 215 211 210 205 204 205 206 204 206 208 213 213 215 219 215 209 207 201 203
322 320 318 317 317 315 309 306 302 297 288 276 265 255 253 249 244 238 226 214 208 206 199 197 209 215 205 209 209 202 204 210 217 218 214 207 202 198
324 322 320 319 319 316 312 308 306 300 294 281 264 263 254 243 239 234 224 214 213 201 199 199 205 195 200 203 206 209 205 201 200 206 220 224 209 201
328 326 325 324 321 317 311 308 303 301 299 289 272 262 246 232 232 229 222 210 212 197 197 195 195 195 200 202 207 206 204 200 198 193 201 208 213 216